This demonstration page uses our WeatherBlox Daily Observations layout. Learn more.

Left ArrowRight Arrow

41.12389, -100.76542

Hourly Observations for January 2, 2018

Temp ( °F °C ) Dew Point ( °F °C ) Humidity (%) Winds ( mph kmh ) Pressure ( in mb ) Visibility ( mi km ) Precip ( " mm )
12:53 am 00:53 Clear -9 -22.8 -12 -24.4 87 87 ESE 6 9 30.71 1040 10 16 0.00 0.00
1:53 am 01:53 Clear -9 -22.8 -11 -23.9 91 91 ESE 5 7 30.70 1040 10 16 0.00 0.00
2:53 am 02:53 Clear -9 -22.8 -12 -24.4 87 87 Calm 30.71 1040 10 16 0.00 0.00
3:53 am 03:53 Clear -9 -22.8 -16 -26.7 71 71 Calm 30.70 1040 10 16 0.00 0.00
4:53 am 04:53 Clear -10 -23.3 -17 -27.2 70 70 Calm 30.69 1039 10 16 0.00 0.00
5:53 am 05:53 Clear -11 -23.9 -17 -27.2 74 74 WNW 6 9 30.69 1039 10 16 0.00 0.00
6:53 am 06:53 Clear -7 -21.7 -15 -26.1 68 68 WSW 6 9 30.66 1038 10 16 0.00 0.00
7:53 am 07:53 Clear -7 -21.7 -15 -26.1 68 68 Calm 30.67 1039 10 16 0.00 0.00
8:53 am 08:53 Sunny -5 -20.6 -12 -24.4 72 72 Calm 30.65 1038 10 16 0.00 0.00
9:20 am 09:20 Partly Cloudy -1 -18.3 -8 -22.2 72 72 SW 5 7 30.77 1042 10 16 0.00 0.00
9:32 am 09:32 Mostly Cloudy 0 -17.8 -8 -22.2 69 69 W 7 11 30.74 1041 10 16 0.00 0.00
9:53 am 09:53 Mostly Cloudy with Haze 2 -16.7 -5 -20.6 72 72 WNW 5 7 30.61 1037 6 10 0.00 0.00
10:04 am 10:04 Partly Cloudy 4 -15.6 -6 -21.1 63 63 WNW 7 11 30.71 1040 7 11 0.00 0.00
10:53 am 10:53 Sunny 6 -14.4 -2 -18.9 69 69 W 12 19 30.60 1036 9 14 0.00 0.00
11:53 am 11:53 Sunny 8 -13.3 1 -17.2 73 73 W 9 15 30.55 1035 8 13 0.00 0.00
12:53 pm 12:53 Sunny 13 -10.6 5 -15 70 70 W 14 22 30.52 1034 9 14 0.00 0.00
1:53 pm 13:53 Sunny 16 -8.9 7 -13.9 67 67 W 12 19 30.47 1032 10 16 0.00 0.00
2:53 pm 14:53 Sunny 19 -7.2 9 -12.8 65 65 W 8 13 30.43 1031 10 16 0.00 0.00
3:53 pm 15:53 Sunny 23 -5 11 -11.7 60 60 W 10 17 30.41 1030 10 16 0.00 0.00
4:53 pm 16:53 Sunny 23 -5 12 -11.1 63 63 W 9 15 30.40 1029 10 16 0.00 0.00
5:53 pm 17:53 Clear 19 -7.2 11 -11.7 71 71 W 9 15 30.40 1030 10 16 0.00 0.00
6:53 pm 18:53 Clear 15 -9.4 8 -13.3 74 74 WNW 6 9 30.40 1030 10 16 0.00 0.00
7:53 pm 19:53 Cloudy 20 -6.7 13 -10.6 74 74 WNW 10 17 30.40 1030 10 16 0.00 0.00
8:53 pm 20:53 Mostly Cloudy 19 -7.2 13 -10.6 77 77 WNW 10 17 30.41 1030 10 16 0.00 0.00
9:53 pm 21:53 Cloudy 19 -7.2 13 -10.6 77 77 NW 9 15 30.40 1029 10 16 0.00 0.00
10:53 pm 22:53 Clear 11 -11.7 7 -13.9 84 84 NW 10 17 30.41 1030 10 16 0.00 0.00
11:53 pm 23:53 Clear 10 -12.2 6 -14.4 84 84 NW 12 19 30.42 1030 10 16 0.00 0.00

Powered by AerisWeather